DUBAISAT-1

Last updated on Sat Jun 21 2025 00:02:28 GMT+0000 (Coordinated Universal Time)

1 35682U 09041B 25171.34470821 .00000841 00000+0 13552-3 0 9994 2 35682 97.9566 304.9658 0011481 146.8780 213.3150 14.73995915851778
UTC large
Height (km)
Speed (km/s)
/
Latitude / Longitude
Inclination (degrees)
Orbital Period (minutes)
Azimuth
Elevation
Range (km)
Doppler Factor

Next 0 passes for location: London (51.5072 / 0.1276)

Sorry there are no passes over London.